TOURFACTS.DK  
Stats and Facts from Tour de France.

Tour de France 2019 starts in 320 days
  Riders   Stages   Teams   Summits   Yearly  


 
Search by year

After 2018 - Stage 21:
 15000 starters.
  5165 different riders.
  638 teams.
  2253 stages.
  456 restdays.
  442940.60 km.
  5684 abandonnees.


Top 3
GC
Geraint Thomas83:17:13
Tom Dumoulin83:19:04
Christopher Froome83:19:37
Climb
Julian Alaphilippe170 pt.
Warren Barguil91 pt.
Rafal Majka76 pt.
Sprint
Peter Sagan477 pt.
Alexander Kristoff246 pt.
Arnaud Démare203 pt.
Youth
Pierre-Roger Latou..83:39:26
Egan Bernal83:45:05
Guillaume Martin84:01:31
Facts from Tour de France 2016
  |   Stages.  |   Stage winners.  |   Days in yellow  |   Average speed.  |   Route.  |   Teams.  |   All riders.  |   Rookies.  |  

  |   Withdrawls.  |   GC.  |   Polka  |   Green  |   White  |   Summits. (In tour)  |   Miscellaneous.  |  

Stage 15 on 17 - 07 - 2016
         Owning:    Christopher Froome      Rafal Majka      Peter Sagan      Adam Yates  

Pick a stage:  1 2 3 4 5 6 7 8 9 10 11 12 13 14 15 16 17 18 19 20 21
  Bourg-en-BresseCuloz | Dist: 159.00 km.
Cat: 1Col du BerthiandPOLRafal Majka10 points 
Cat: 2Col du SappelFRAThomas Voeckler5 points 
Cat: 3Col de PisseloupBELSerge Pauwels2 points 
Cat: 3Côte de RochetteBELSerge Pauwels2 points 
Cat: HCol du Grand ColombierPOLRafal Majka25 points 
Cat: 1Lacets du Grand ColombierPOLRafal Majka10 points 

Average speed for all riders in stage:  33,562 km./hr.
    Place:Name:Team:Time:Km/h:
1
COLJarlinson Pantano GomezCHEIAM Cycling04:24:49  +  00:00:00=36,025 
2
POLRafal MajkaRUSTinkoff04:24:49  +  00:00:00=36,025 
3
FRAAlexis VuillermozFRAAg2r La Mondiale04:24:55  +  00:00:06=36,011 
44 SUISébastien ReichenbachFRAFDJ04:24:55  +  00:00:06=36,011 
55 FRAJulian AlaphilippeBELEtixx - Quick Step04:25:11  +  00:00:22=35,975 
66 BELSerge PauwelsZAFDimension Data04:25:14  +  00:00:25=35,968 
77 FRAPierre RollandUSATeam Cannondale Drapac04:25:14  +  00:00:25=35,968 
88 RUSIlnur ZakarinRUSTeam Katusha04:26:19  +  00:01:30=35,822 
99 ESPDaniel NavarroFRACofidis – Solutions Crédits04:26:19  +  00:01:30=35,822 
1010 NEDTom-Jelte SlagterUSATeam Cannondale Drapac04:26:57  +  00:02:08=35,737 
1111 HRVKristijan DurasekITALampre-Merida04:26:57  +  00:02:08=35,737 
1212 POLBartosz HuzarskiDEUBora-Argon 1804:26:59  +  00:02:10=35,733 
1313 NEDWout PoelsGBRSky Procycling04:27:56  +  00:03:07=35,606 
1414 KENChristopher FroomeGBRSky Procycling04:27:56  +  00:03:07=35,606 
1515 COLNairo QuintanaESPMovistar Team04:27:56  +  00:03:07=35,606 
1616 ESPAlejandro ValverdeESPMovistar Team04:27:56  +  00:03:07=35,606 
1717 FRARomain BardetFRAAg2r La Mondiale04:27:56  +  00:03:07=35,606 
1818 AUSRichie PorteUSABMC Racing Team04:27:56  +  00:03:07=35,606 
1919 CZERoman KreuzigerRUSTinkoff04:27:56  +  00:03:07=35,606 
2020 RSALouis MeintjesITALampre-Merida04:27:56  +  00:03:07=35,606 
2121 ENGAdam YatesAUSORICA BikeExchange04:27:56  +  00:03:07=35,606 
2222 NEDBauke MollemaUSATrek - Segafredo04:27:56  +  00:03:07=35,606 
2323 ITAFabio AruKAZAstana Pro Team04:27:56  +  00:03:07=35,606 
2424 ENGDaniel MartinBELEtixx - Quick Step04:27:56  +  00:03:07=35,606 
2525 ESPJoaquim RodriguezRUSTeam Katusha04:27:56  +  00:03:07=35,606 
2626 SUISteve MorabitoFRAFDJ04:27:56  +  00:03:07=35,606 
2727 ESPHaimar ZubeldiaUSATrek - Segafredo04:27:56  +  00:03:07=35,606 
2828 PORNelson OliveiraESPMovistar Team04:27:56  +  00:03:07=35,606 
2929 NEDStef ClementCHEIAM Cycling04:29:24  +  00:04:35=35,412 
3030 USATejay Van GarderenUSABMC Racing Team04:29:24  +  00:04:35=35,412 
3131 ESPMikel NieveGBRSky Procycling04:29:24  +  00:04:35=35,412 
3232 ITADomenico PozzovivoFRAAg2r La Mondiale04:29:24  +  00:04:35=35,412 
3333 WALGeraint ThomasGBRSky Procycling04:27:56  +  00:03:07=35,606 
3434 COLSergio Luis HenaoGBRSky Procycling04:27:56  +  00:03:07=35,606 
3535 ITADiego RosaKAZAstana Pro Team04:27:56  +  00:03:07=35,606 
3636 SLOJan PolancITALampre-Merida04:27:56  +  00:03:07=35,606 
3737 FRAThomas VoecklerFRADirect Energie04:27:56  +  00:03:07=35,606 
3838 FRARomain SicardFRADirect Energie04:36:49  +  00:12:00=34,463 
3939 GEREmanuel BuchmannDEUBora-Argon 1804:36:53  +  00:12:04=34,455 
4040 NZLGeorge BennettNLDTeam Lotto NL - Jumbo04:36:53  +  00:12:04=34,455 
4141 ESPRubén PlazaAUSORICA BikeExchange04:36:53  +  00:12:04=34,455 
4242 URSTanel KangertKAZAstana Pro Team04:36:53  +  00:12:04=34,455 
4343 BELJan BakelantsFRAAg2r La Mondiale04:36:53  +  00:12:04=34,455 
4444 FRAWarren BarguilDEUTeam Giant Alpecin04:38:38  +  00:13:49=34,239 
4545 USAPeter StetinaUSATrek - Segafredo04:38:38  +  00:13:49=34,239 
4646 FRAAmaël MoinardUSABMC Racing Team04:38:38  +  00:13:49=34,239 
4747 ESPDaniel MorenoESPMovistar Team04:38:38  +  00:13:49=34,239 
4848 ESPLuis León SánchezKAZAstana Pro Team04:38:38  +  00:13:49=34,239 
4949 FRAMickaël CherelFRAAg2r La Mondiale04:38:38  +  00:13:49=34,239 
5050 ITAVincenzo NibaliKAZAstana Pro Team04:38:38  +  00:13:49=34,239 
5251 ESPGorka Izaguirre InsaustiESPMovistar Team04:38:38  +  00:13:49=34,239 
5352 FRAArthur VichotFRAFDJ04:39:15  +  00:14:26=34,163 
5453 FRABrice FeilluFRAFortuneo - Vital Concept04:39:15  +  00:14:26=34,163 
5554 FRAAnthony RouxFRAFDJ04:39:15  +  00:14:26=34,163 
5655 HRVRobert KiserlovskiRUSTinkoff04:39:15  +  00:14:26=34,163 
5756 FRAFabrice JeandesbozFRADirect Energie04:41:00  +  00:16:11=33,950 
5857 SUIMichael SchärUSABMC Racing Team04:41:30  +  00:16:41=33,890 
5958 GERSimon GeschkeDEUTeam Giant Alpecin04:41:30  +  00:16:41=33,890 
6059 NEDTom DumoulinDEUTeam Giant Alpecin04:41:30  +  00:16:41=33,890 
6160 FRAJérôme CoppelCHEIAM Cycling04:39:15  +  00:14:26=34,163 
6261 ESPJon Izaguirre InsaustiESPMovistar Team04:39:15  +  00:14:26=34,163 
6362 ESPAlberto LosadaRUSTeam Katusha04:39:15  +  00:14:26=34,163 
6463 LUXBen GastauerFRAAg2r La Mondiale04:43:03  +  00:18:14=33,704 
6564 FRAGeoffrey SoupeFRACofidis – Solutions Crédits04:43:51  +  00:19:02=33,609 
6665 FRAArnold JeannessonFRACofidis – Solutions Crédits04:43:51  +  00:19:02=33,609 
6766 NEDDylan Van BaarleUSATeam Cannondale Drapac04:43:51  +  00:19:02=33,609 
6867 LUXFränk SchleckUSATrek - Segafredo04:43:51  +  00:19:02=33,609 
6968 FRASylvain ChavanelFRADirect Energie04:43:51  +  00:19:02=33,609 
7069 NEDBert-Jan LindemanNLDTeam Lotto NL - Jumbo04:45:52  +  00:21:03=33,372 
7170 NEDWilco KeldermanNLDTeam Lotto NL - Jumbo04:45:52  +  00:21:03=33,372 
7271 CZEJan BártaDEUBora-Argon 1804:45:52  +  00:21:03=33,372 
7372 BELGreg Van AvermaetUSABMC Racing Team04:46:42  +  00:21:53=33,275 
7473 BELOliver NaesenCHEIAM Cycling04:46:42  +  00:21:53=33,275 
7574 GERMarcus BurghardtUSABMC Racing Team04:46:42  +  00:21:53=33,275 
7675 ITADamiano CarusoUSABMC Racing Team04:46:42  +  00:21:53=33,275 
7776 AUTGeorg PreidlerDEUTeam Giant Alpecin04:46:42  +  00:21:53=33,275 
7877 SUIMartin ElmigerCHEIAM Cycling04:46:42  +  00:21:53=33,275 
7978 BELJürgen RoelandtsBELLotto Soudal04:46:42  +  00:21:53=33,275 
8079 ERIDaniel TeklehaimanotZAFDimension Data04:46:42  +  00:21:53=33,275 
8180 FRAFlorian VachonFRAFortuneo - Vital Concept04:46:42  +  00:21:53=33,275 
8281 ETHTsgabu Gebremaryan GrmayITALampre-Merida04:46:42  +  00:21:53=33,275 
8382 USABrent BookwalterUSABMC Racing Team04:46:42  +  00:21:53=33,275 
8483 AUTPatrick KonradDEUBora-Argon 1804:46:42  +  00:21:53=33,275 
8584 ITAPaolo TiralongoKAZAstana Pro Team04:46:42  +  00:21:53=33,275 
8685 RSADaryl ImpeyAUSORICA BikeExchange04:46:42  +  00:21:53=33,275 
8786 UKRAndriy GrivkoKAZAstana Pro Team04:46:42  +  00:21:53=33,275 
8887 DENMichael ValgrenRUSTinkoff04:46:42  +  00:21:53=33,275 
8988 NEDLaurens ten DamDEUTeam Giant Alpecin04:46:42  +  00:21:53=33,275 
9089 FRAPierre-Luc PérichonFRAFortuneo - Vital Concept04:46:42  +  00:21:53=33,275 
9190 FRAJérémy RoyFRAFDJ04:46:42  +  00:21:53=33,275 
9291 KAZAlexey LutsenkoKAZAstana Pro Team04:46:42  +  00:21:53=33,275 
9392 COLWinner AnaconaESPMovistar Team04:46:42  +  00:21:53=33,275 
9493 AUSRohan DennisUSABMC Racing Team04:46:42  +  00:21:53=33,275 
9594 ESPMikel Landa MeanaGBRSky Procycling04:46:42  +  00:21:53=33,275 
9695 ESPImanol ErvitiESPMovistar Team04:46:42  +  00:21:53=33,275 
9796 BLRVasil KiryienkaGBRSky Procycling04:46:42  +  00:21:53=33,275 
9897 FRACyril LemoineFRACofidis – Solutions Crédits04:46:42  +  00:21:53=33,275 
10098 IRLChristopher Juul JensenAUSORICA BikeExchange04:46:42  +  00:21:53=33,275 
10199 BELThomas De GendtBELLotto Soudal04:47:29  +  00:22:40=33,185 
102100 JPNYukiya ArashiroITALampre-Merida04:47:29  +  00:22:40=33,185 
103101 GERPaul MartensNLDTeam Lotto NL - Jumbo04:47:29  +  00:22:40=33,185 
104102 AUSAdam HansenBELLotto Soudal04:47:29  +  00:22:40=33,185 
105103 ESPLuis Angel MateFRACofidis – Solutions Crédits04:47:29  +  00:22:40=33,185 
106104 BELMaarten WynantsNLDTeam Lotto NL - Jumbo04:49:24  +  00:24:35=32,965 
107105 FRANicolas EdetFRACofidis – Solutions Crédits04:50:18  +  00:25:29=32,863 
108106 SUIReto HollensteinCHEIAM Cycling04:51:21  +  00:26:32=32,744 
109107 FRATony GallopinBELLotto Soudal04:51:21  +  00:26:32=32,744 
110108 ESPMarkel IrizarUSATrek - Segafredo04:51:21  +  00:26:32=32,744 
111109 CZEPetr VakocBELEtixx - Quick Step04:51:21  +  00:26:32=32,744 
112110 PORRui CostaITALampre-Merida04:51:21  +  00:26:32=32,744 
113111 NEDRoy CurversDEUTeam Giant Alpecin04:51:21  +  00:26:32=32,744 
114112 FRAWilliam BonnetFRAFDJ04:51:21  +  00:26:32=32,744 
115113 BELJulien VermoteBELEtixx - Quick Step04:51:21  +  00:26:32=32,744 
116114 FRAChristophe LaporteFRACofidis – Solutions Crédits04:51:21  +  00:26:32=32,744 
117115 NEDAlbert TimmerDEUTeam Giant Alpecin04:51:21  +  00:26:32=32,744 
118116 CANAntoine DuchesneFRADirect Energie04:51:21  +  00:26:32=32,744 
119117 USALawson CraddockUSATeam Cannondale Drapac04:51:21  +  00:26:32=32,744 
120118 FRAAnthony DelaplaceFRAFortuneo - Vital Concept04:51:21  +  00:26:32=32,744 
121119 FRAArmindo FonsecaFRAFortuneo - Vital Concept04:51:21  +  00:26:32=32,744 
122120 DENChris Anker SørensenFRAFortuneo - Vital Concept04:51:21  +  00:26:32=32,744 
123121 ARGEduardo SepulvedaFRAFortuneo - Vital Concept04:51:21  +  00:26:32=32,744 
124122 ITAMatteo BonoITALampre-Merida04:51:21  +  00:26:32=32,744 
125123 FRACyril GautierFRAAg2r La Mondiale04:51:21  +  00:26:32=32,744 
126124 GERRobert WagnerNLDTeam Lotto NL - Jumbo04:51:21  +  00:26:32=32,744 
127125 AUTMarco HallerRUSTeam Katusha04:51:21  +  00:26:32=32,744 
128126 ESPÁngel ViciosoRUSTeam Katusha04:51:21  +  00:26:32=32,744 
130127 AUSMichael MatthewsAUSORICA BikeExchange04:52:56  +  00:28:07=32,567 
131128 SUIGregory RastUSATrek - Segafredo04:52:56  +  00:28:07=32,567 
132129 NEDRamon SinkeldamDEUTeam Giant Alpecin04:52:56  +  00:28:07=32,567 
133130 POLMaciej BodnarRUSTinkoff04:52:56  +  00:28:07=32,567 
134131 NOREdvald Boasson HagenZAFDimension Data04:52:56  +  00:28:07=32,567 
135132 WALLuke RoweGBRSky Procycling04:52:56  +  00:28:07=32,567 
136133 ENGIan StannardGBRSky Procycling04:52:56  +  00:28:07=32,567 
137134 AUSLuke DurbridgeAUSORICA BikeExchange04:52:56  +  00:28:07=32,567 
138135 SLOLuka PibernikITALampre-Merida04:52:56  +  00:28:07=32,567 
139136 AUSMathew HaymanAUSORICA BikeExchange04:52:56  +  00:28:07=32,567 
140137 SLOKristjan KorenUSATeam Cannondale Drapac04:52:56  +  00:28:07=32,567 
141138 RSAReinardt Janse Van RensburgZAFDimension Data04:52:56  +  00:28:07=32,567 
142139 NEDTimo RoosenNLDTeam Lotto NL - Jumbo04:52:56  +  00:28:07=32,567 
143140 GERTony MartinBELEtixx - Quick Step04:52:56  +  00:28:07=32,567 
144141 ITAMatteo TosattoRUSTinkoff04:52:56  +  00:28:07=32,567 
145142 ITAOscar GattoRUSTinkoff04:52:56  +  00:28:07=32,567 
146143 ERINatnael Teweldemedhin BerhaneZAFDimension Data04:52:56  +  00:28:07=32,567 
147144 GERPaul VossDEUBora-Argon 1804:52:56  +  00:28:07=32,567 
148145 BELJasper StuyvenUSATrek - Segafredo04:52:56  +  00:28:07=32,567 
149146 FRAYohann GèneFRADirect Energie04:52:56  +  00:28:07=32,567 
150147 FRABryan CoquardFRADirect Energie04:52:56  +  00:28:07=32,567 
151148 SUIFabian CancellaraUSATrek - Segafredo04:52:56  +  00:28:07=32,567 
152149 SVKPeter SaganRUSTinkoff04:53:02  +  00:28:13=32,556 
153150 BELIljo KeisseBELEtixx - Quick Step04:53:59  +  00:29:10=32,451 
154151 IOMMark CavendishZAFDimension Data04:53:59  +  00:29:10=32,451 
155152 ITAFabio SabatiniBELEtixx - Quick Step04:53:59  +  00:29:10=32,451 
156153 GERMarcel SiebergBELLotto Soudal04:53:59  +  00:29:10=32,451 
157154 SUIMichael AlbasiniAUSORICA BikeExchange04:53:59  +  00:29:10=32,451 
158155 ITAJacopo GuarnieriRUSTeam Katusha04:53:59  +  00:29:10=32,451 
159156 NEDDylan GroenewegenNLDTeam Lotto NL - Jumbo04:53:59  +  00:29:10=32,451 
160157 FRAAdrien PetitFRADirect Energie04:53:59  +  00:29:10=32,451 
161158 ITACesare BenedettiDEUBora-Argon 1804:53:59  +  00:29:10=32,451 
162159 DENLars BakBELLotto Soudal04:53:59  +  00:29:10=32,451 
163160 GERAndré GreipelBELLotto Soudal04:53:59  +  00:29:10=32,451 
164161 ENGStephen CummingsZAFDimension Data04:53:59  +  00:29:10=32,451 
165162 NORVegard BreenFRAFortuneo - Vital Concept04:53:59  +  00:29:10=32,451 
166163 FRASamuel DumoulinFRAAg2r La Mondiale04:53:59  +  00:29:10=32,451 
167164 USAAlex HowesUSATeam Cannondale Drapac04:53:59  +  00:29:10=32,451 
168165 SLOBorut BozicFRACofidis – Solutions Crédits04:53:59  +  00:29:10=32,451 
169166 FRA Alexis GougeardFRAAg2r La Mondiale04:53:59  +  00:29:10=32,451 
170167 BRAMaximilano RichezeBELEtixx - Quick Step04:53:59  +  00:29:10=32,451 
171168 GERAndreas SchillingerDEUBora-Argon 1804:53:59  +  00:29:10=32,451 
172169 NORAlexander KristoffRUSTeam Katusha04:53:59  +  00:29:10=32,451 
173170 URSRamunas NavardauskasUSATeam Cannondale Drapac04:53:59  +  00:29:10=32,451 
174171 AUTBernhard EiselZAFDimension Data04:53:59  +  00:29:10=32,451 
175172 ITADavide CimolaiITALampre-Merida04:53:59  +  00:29:10=32,451 
176173 NZLGregory HendersonBELLotto Soudal04:53:59  +  00:29:10=32,451 
177174 BELSam BennettDEUBora-Argon 1804:53:59  +  00:29:10=32,451 
178175 NZLShane ArchboldDEUBora-Argon 1804:53:59  +  00:29:10=32,451 
179176 BELSep VanmarckeNLDTeam Lotto NL - Jumbo04:53:59  +  00:29:10=32,451 
180177 NORSondre Holst EngerCHEIAM Cycling04:53:59  +  00:29:10=32,451 
181178 GERJohn DegenkolbDEUTeam Giant Alpecin04:53:59  +  00:29:10=32,451 
182179 GERMarcel KittelBELEtixx - Quick Step04:53:59  +  00:29:10=32,451 
183180 ENGDaniel McLayFRAFortuneo - Vital Concept04:56:34  +  00:31:45=32,168 

Withdrawls: 3
 
Rider
Team
Reason
15  ESPJesus HerradaESPMovistar TeamDid not finish
101  IOMMark CavendishZAFDimension DataDid not start
164  BELJens DebusschereBELLotto SoudalDid not start
Todays birthdays.

1878  Jean Novo
1883  Jules Chabas
1890  Ange Aubry
1893  Roger Marye
1913  Paul Maye
1914  Lucien Vlaemynck
1915  Alphonse Antoine
1932  Rolf Graf
1953  Julio Rubiano
1959  Jos Haex
1959  Gerard Veldscholten
1963  Pablo Moreno
1964  Juan Castillo
1977  Iban Mayo
1994  Fernando Gaviria